Retour au catalogue

COSMOS 627

ActifMilitairePO
NORAD 7008·PAYLOAD·🇷🇺 Russia

Lancé Dec 29, 1973 depuis Plesetsk Cosmodrome

Loading…

Prochains Passages (prochaines 24 heures)

TLE

FraisSource: Space-Track

Époque: Sep 14, 2026, 21:11 UTC

1 07008U 73109A   26257.88299503  .00000034  00000-0  19991-4 0  9991
2 07008  82.9515  55.5492 0033415  87.4147  76.7560 13.73084291640193

Suivez COSMOS 627 en temps réel avec AllMySat

Download on the App Store